Home   Weather   Warsaw   Past weeks

Flag for Poland Past Weather in Warsaw, Poland — Yesterday and Last 2 Weeks

Now
61 °F

Light rain. Passing clouds.


Feels Like: 61 °F
Forecast: 53 / 67 °F
Wind: 5 mph from Northwest

Location: Warsaw Okecie Airport

Current Time: Aug 20, 2017 at 5:44:16 pm

Latest Report: Aug 20, 2017 at 5:00 pm


Visibility: N/A

Pressure: 30.09 "Hg

Humidity: 94%

Dew Point: 59 °F

Location of WarsawLocation

Past Weather in Warsaw — Graph

°F

Warsaw Temperature Yesterday

Maximum temperature yesterday: 81 °F (at 11:00 am)
Minimum temperature yesterday: 61 °F (at 8:30 pm)
Average temperature yesterday: 68 °F

High & Low Weather Summary for the Past Weeks

 TemperatureHumidityPressure
High93 °F (Aug 11, 4:30 pm)100% (Aug 14, 1:00 am)30.30 "Hg (Aug 14, 1:00 am)
Low52 °F (Aug 8, 1:30 am)31% (Aug 16, 3:00 pm)29.80 "Hg (Aug 11, 8:00 pm)
Average69 °F68%30.07 "Hg
* Reported Aug 5 4:00 pm — Aug 20 4:30 pm, Warsaw. Weather by CustomWeather, © 2017

Note: Actual official high and low records may vary slightly from our data, if they occured in-between our weather recording intervals... More about our weather records

Advertising

Warsaw Weather History for the Previous 24 Hours

Scroll right to see more
 ConditionsComfort  
Time TempWeatherWind HumidityBarometerVisibility
4:30 pm
Sun, Aug 20
63 °FLight rain. Scattered clouds.3 mph88%30.09 "HgN/A
4:00 pm63 °FLight rain. Broken clouds.2 mph94%30.07 "HgN/A
3:30 pm61 °FLight rain. Scattered clouds.3 mph94%30.07 "HgN/A
3:00 pm61 °FLight rain. Passing clouds.6 mph94%30.07 "HgN/A
2:30 pm63 °FLight rain. Passing clouds.5 mph88%30.07 "HgN/A
2:00 pm63 °FLight rain. Passing clouds.6 mph88%30.07 "HgN/A
1:30 pm61 °FLight rain. Passing clouds.7 mph94%30.07 "HgN/A
1:00 pm61 °FLight rain. Passing clouds.2 mph94%30.07 "Hg6 mi
12:30 pm61 °FRain. Scattered clouds.5 mph94%30.09 "Hg4 mi
12:00 pm61 °FLight rain. Partly sunny.8 mph94%30.09 "Hg4 mi
11:30 am61 °FRain. Mostly cloudy.5 mph100%30.09 "Hg4 mi
11:00 am63 °FMild.3 mph94%30.09 "Hg2 mi
10:30 am63 °FLight rain. Fog.2 mph94%30.07 "Hg2 mi
10:00 am63 °FRain. Fog.2 mph94%30.09 "Hg2 mi
9:30 am63 °FLight rain. Fog.2 mph94%30.07 "Hg2 mi
9:00 am63 °FLight rain. Fog.2 mph94%30.07 "Hg2 mi
8:30 am63 °FLight rain. Fog.2 mph94%30.07 "Hg3 mi
8:00 am61 °FLight rain. Broken clouds.2 mph100%30.07 "Hg3 mi
7:30 am61 °FFog.No wind100%30.07 "Hg3 mi
7:00 am61 °FPartly sunny.1 mph100%30.07 "Hg4 mi
6:30 am61 °FPartly sunny.2 mph94%30.07 "Hg4 mi
6:00 am59 °FFog.2 mph100%30.07 "Hg3 mi
5:30 am59 °FFog.1 mph100%30.07 "Hg2 mi
5:00 am59 °FFog.1 mph100%30.07 "Hg4 mi
4:30 am59 °FFog.2 mph100%30.07 "Hg5 mi
4:00 am59 °FFog.1 mph100%30.09 "Hg5 mi
3:30 am59 °FClear.3 mph100%30.09 "Hg10 mi
3:00 am59 °FClear.3 mph100%30.09 "Hg10 mi
2:30 am61 °FClear.No wind94%30.09 "Hg10 mi
2:00 am61 °FClear.2 mph94%30.09 "Hg10 mi
1:30 am61 °FClear.No wind94%30.09 "Hg10 mi
1:00 am61 °FPassing clouds.2 mph94%30.09 "HgN/A
12:30 am61 °FClear.2 mph94%30.09 "Hg10 mi
12:00 am61 °FFog.1 mph100%30.09 "HgN/A
11:30 pm
Sat, Aug 19
61 °FFog.2 mph94%30.09 "HgN/A
11:00 pm61 °FClear.1 mph94%30.09 "Hg10 mi
10:30 pm61 °FClear.3 mph94%30.09 "Hg10 mi
10:00 pm61 °FClear.3 mph100%30.09 "Hg10 mi
9:30 pm61 °FFog.2 mph94%30.09 "HgN/A
9:00 pm61 °FPassing clouds.3 mph94%30.09 "HgN/A
8:30 pm61 °FPassing clouds.5 mph94%30.09 "HgN/A
8:00 pm63 °FPassing clouds.2 mph88%30.07 "HgN/A
7:30 pm63 °FSprinkles. Scattered clouds.6 mph94%30.07 "HgN/A
7:00 pm63 °FSprinkles. Scattered clouds.5 mph94%30.07 "HgN/A
6:30 pm64 °FSprinkles. Scattered clouds.9 mph88%30.07 "Hg4 mi
6:00 pm64 °FSprinkles. Scattered clouds.9 mph94%30.07 "HgN/A
5:30 pm64 °FSprinkles. Scattered clouds.7 mph94%30.04 "HgN/A
5:00 pm66 °FPassing clouds.7 mph88%30.04 "HgN/A
Weather by CustomWeather, © 2017

See weather overviewHow to use our weather pages